QPF
0.01 0.02 0.02 0.02 0.02 0.02 0.02 0.02 0.03 0.02 0.01 0.01 0.01 0.01 0.01 0.01 0.02 0.02 0.02 0.02 0.03 0.03 0.02 0.02 0.03 0.02 0.03 0.03 0.02 0.03 0.03 0.02 0.03 0.04 0.04 0.04 0.02 0.02 0.04 0.04 0.05 0.07 0.05
0.02 0.02 0.02 0.01 0.01 0.01 0.01 0.02 0.02 0.02 0.01 0.01 0.02 0.02 0.01 0.01 0.02 0.02 0.03 0.03 0.03 0.03 0.03 0.04 0.03 0.03 0.03 0.03 0.03 0.03 0.03 0.03 0.03 0.04 0.05 0.05 0.04 0.03 0.03 0.04 0.04 0.05 0.04
0.01 0.03 0.03 0.03 0.01 0.01 0.01 0.02 0.02 0.02 0.01 0.01 0.01 0.01 0.02 0.03 0.04 0.06 0.05 0.04 0.03 0.03 0.03 0.04 0.04 0.03 0.04 0.04 0.04 0.04 0.05 0.03 0.03 0.04 0.04 0.04 0.05 0.04 0.04 0.02 0.03 0.05 0.04
0.01 0.01 0.02 0.03 0.03 0.02 0.01 0.02 0.02 0.02 0.02 0.02 0.03 0.03 0.03 0.03 0.03 0.05 0.05 0.04 0.03 0.03 0.04 0.04 0.04 0.04 0.04 0.04 0.03 0.04 0.04 0.04 0.03 0.03 0.03 0.03 0.03 0.03 0.03 0.02 0.04 0.05 0.04
0.01 0.01 0.01 0.02 0.02 0.02 0.02 0.02 0.02 0.03 0.04 0.04 0.03 0.03 0.03 0.03 0.03 0.03 0.04 0.03 0.02 0.02 0.03 0.03 0.04 0.05 0.04 0.04 0.03 0.03 0.04 0.03 0.03 0.03 0.03 0.03 0.03 0.02 0.02 0.03 0.04 0.05 0.05
0.01 0.01 0.01 0.01 0.02 0.03 0.04 0.04 0.03 0.03 0.04 0.04 0.04 0.03 0.03 0.03 0.04 0.03 0.02 0.02 0.02 0.02 0.01 0.02 0.03 0.03 0.03 0.03 0.02 0.02 0.02 0.02 0.02 0.03 0.03 0.03 0.04 0.03 0.02 0.03 0.04 0.05 0.04
0.01 0.01 0.01 0.01 0.01 0.02 0.04 0.04 0.04 0.03 0.03 0.04 0.04 0.04 0.04 0.04 0.03 0.03 0.02 0.01 0.02 0.02 0.01 0.01 0.02 0.02 0.02 0.01 0.01 0.01 0.02 0.01 0.02 0.03 0.04 0.04 0.05 0.05 0.04 0.03 0.03 0.04 0.04
0.02 0.02 0.01 0.01 0.01 0.02 0.03 0.03 0.03 0.03 0.03 0.05 0.05 0.05 0.05 0.04 0.03 0.03 0.02 0.01 0.01 0.02 0.02 0.02 0.02 0.02 0.02 0.01 0.01 0.01 0.02 0.02 0.01 0.01 0.02 0.04 0.04 0.04 0.04 0.04 0.04 0.03 0.03
0.01 0.02 0.02 0.02 0.01 0.01 0.02 0.02 0.03 0.03 0.05 0.07 0.09 0.06 0.04 0.04 0.04 0.04 0.03 0.02 0.02 0.02 0.01 0.01 0.01 0.01 0.01 0.01 0.01 0.01 0.01 0.02 0.02 0.01 0.02 0.02 0.03 0.03 0.04 0.03 0.04 0.04 0.04
0.01 0.01 0.02 0.02 0.02 0.01 0.01 0.02 0.04 0.06 0.07 0.07 0.07 0.07 0.07 0.07 0.06 0.05 0.05 0.04 0.03 0.02 0.02 0.01 0.01 0.01 0.01 0.01 0.02 0.01 0.01 0.01 0.02 0.02 0.02 0.03 0.02 0.03 0.03 0.03 0.03 0.03 0.04
0.01 0.01 0.01 0.01 0.01 0.02 0.02 0.03 0.04 0.06 0.06 0.05 0.05 0.06 0.07 0.07 0.06 0.05 0.05 0.05 0.04 0.03 0.03 0.02 0.01 0.01 0.01 0.01 0.02 0.01 0.01 0.01 0.01 0.01 0.02 0.01 0.02 0.03 0.03 0.02 0.02 0.02 0.02
0.01 0.01 0.01 0.01 0.01 0.01 0.02 0.03 0.04 0.04 0.03 0.04 0.05 0.04 0.06 0.07 0.06 0.04 0.04 0.04 0.05 0.05 0.05 0.03 0.02 0.02 0.02 0.02 0.02 0.02 0.02 0.03 0.02 0.01 0.01 0.01 0.01 0.02 0.03 0.03 0.02 0.02 0.02
0.01 0.01 0.01 0.00 0.01 0.01 0.02 0.03 0.03 0.03 0.03 0.03 0.03 0.03 0.03 0.04 0.06 0.08 0.06 0.05 0.05 0.05 0.04 0.03 0.03 0.03 0.02 0.02 0.02 0.02 0.03 0.04 0.03 0.02 0.01 0.01 0.01 0.02 0.03 0.03 0.03 0.03 0.02
0.01 0.01 0.00 0.00 0.01 0.01 0.02 0.02 0.02 0.03 0.03 0.03 0.03 0.03 0.03 0.03 0.04 0.06 0.06 0.06 0.05 0.04 0.03 0.02 0.02 0.02 0.02 0.02 0.02 0.03 0.03 0.03 0.03 0.03 0.02 0.02 0.02 0.02 0.02 0.02 0.03 0.03 0.03
0.01 0.01 0.01 0.01 0.01 0.01 0.03 0.04 0.03 0.03 0.03 0.04 0.04 0.04 0.03 0.03 0.04 0.04 0.03 0.05 0.05 0.04 0.04 0.03 0.03 0.02 0.02 0.02 0.03 0.03 0.02 0.03 0.03 0.03 0.02 0.01 0.02 0.01 0.01 0.01 0.02 0.03 0.04
0.02 0.02 0.02 0.02 0.03 0.03 0.03 0.03 0.03 0.03 0.03 0.03 0.03 0.03 0.03 0.03 0.04 0.05 0.04 0.04 0.04 0.04 0.04 0.04 0.03 0.03 0.03 0.03 0.03 0.03 0.03 0.03 0.05 0.04 0.03 0.03 0.02 0.01 0.01 0.01 0.01 0.02 0.04
0.03 0.02 0.02 0.03 0.04 0.04 0.04 0.04 0.04 0.04 0.05 0.04 0.03 0.02 0.03 0.03 0.04 0.05 0.05 0.05 0.04 0.04 0.03 0.04 0.04 0.03 0.03 0.03 0.03 0.03 0.04 0.03 0.04 0.04 0.03 0.02 0.02 0.03 0.02 0.02 0.03 0.03 0.03
0.02 0.02 0.02 0.03 0.03 0.03 0.03 0.03 0.04 0.05 0.05 0.04 0.03 0.03 0.02 0.02 0.03 0.04 0.04 0.04 0.04 0.03 0.03 0.03 0.03 0.03 0.03 0.03 0.04 0.03 0.03 0.03 0.03 0.03 0.03 0.04 0.04 0.03 0.03 0.03 0.03 0.03 0.03
0.04 0.04 0.03 0.03 0.03 0.02 0.01 0.02 0.02 0.02 0.02 0.02 0.03 0.03 0.02 0.02 0.03 0.04 0.04 0.05 0.04 0.03 0.03 0.03 0.02 0.02 0.03 0.04 0.03 0.02 0.02 0.02 0.03 0.03 0.03 0.03 0.03 0.03 0.02 0.03 0.03 0.04 0.03
0.05 0.06 0.06 0.05 0.04 0.03 0.03 0.02 0.02 0.01 0.02 0.01 0.02 0.02 0.02 0.03 0.03 0.04 0.04 0.05 0.05 0.04 0.03 0.03 0.03 0.02 0.02 0.04 0.03 0.02 0.02 0.02 0.03 0.03 0.03 0.03 0.02 0.02 0.02 0.03 0.04 0.05 0.05
0.08 0.10 0.11 0.09 0.06 0.05 0.04 0.03 0.03 0.02 0.02 0.01 0.02 0.02 0.02 0.02 0.03 0.04 0.04 0.05 0.05 0.05 0.04 0.04 0.03 0.03 0.03 0.04 0.04 0.04 0.03 0.03 0.03 0.03 0.02 0.02 0.02 0.01 0.01 0.02 0.03 0.05 0.05
0.09 0.12 0.12 0.07 0.05 0.05 0.04 0.04 0.03 0.02 0.02 0.02 0.02 0.03 0.02 0.02 0.02 0.03 0.04 0.05 0.05 0.04 0.04 0.04 0.04 0.03 0.03 0.03 0.02 0.02 0.02 0.02 0.02 0.02 0.02 0.03 0.02 0.01 0.01 0.02 0.03 0.03 0.03
0.07 0.11 0.09 0.04 0.04 0.03 0.03 0.03 0.03 0.02 0.02 0.03 0.03 0.03 0.03 0.02 0.02 0.02 0.03 0.03 0.04 0.03 0.03 0.03 0.03 0.03 0.03 0.03 0.02 0.03 0.03 0.03 0.02 0.02 0.03 0.03 0.03 0.02 0.02 0.02 0.02 0.01 0.02
0.05 0.07 0.06 0.04 0.02 0.02 0.02 0.03 0.03 0.02 0.02 0.02 0.02 0.03 0.03 0.03 0.02 0.02 0.02 0.02 0.02 0.02 0.02 0.02 0.02 0.02 0.02 0.02 0.02 0.02 0.03 0.03 0.03 0.03 0.03 0.04 0.03 0.02 0.02 0.02 0.02 0.01 0.01
0.04 0.04 0.04 0.05 0.05 0.03 0.02 0.02 0.02 0.03 0.02 0.01 0.02 0.02 0.04 0.04 0.04 0.03 0.02 0.01 0.02 0.02 0.02 0.02 0.02 0.02 0.02 0.02 0.02 0.02 0.02 0.02 0.02 0.03 0.03 0.03 0.03 0.02 0.02 0.02 0.02 0.02 0.02
0.03 0.04 0.04 0.04 0.04 0.03 0.02 0.02 0.03 0.03 0.02 0.02 0.02 0.02 0.04 0.04 0.04 0.03 0.02 0.01 0.01 0.02 0.01 0.02 0.02 0.02 0.02 0.02 0.03 0.03 0.02 0.02 0.02 0.02 0.02 0.02 0.02 0.02 0.02 0.02 0.03 0.02 0.02
MSLP
1006.35 1007.00 1007.61 1008.16 1008.65 1009.10 1009.51 1009.91 1010.30 1010.67 1011.01 1011.30 1011.53 1011.68 1011.77 1011.82 1011.84 1011.87 1011.92 1012.02 1012.14 1012.29 1012.45 1012.61 1012.75 1012.87 1012.97 1013.07 1013.17 1013.29 1013.44 1013.62 1013.81 1014.01 1014.20 1014.36 1014.49 1014.59 1014.65 1014.70 1014.74 1014.79 1014.85
1006.14 1006.81 1007.44 1008.01 1008.52 1008.99 1009.44 1009.88 1010.32 1010.75 1011.15 1011.49 1011.76 1011.94 1012.05 1012.08 1012.09 1012.09 1012.12 1012.20 1012.32 1012.50 1012.69 1012.90 1013.08 1013.23 1013.35 1013.43 1013.50 1013.57 1013.66 1013.77 1013.91 1014.08 1014.25 1014.43 1014.59 1014.72 1014.82 1014.90 1014.96 1015.02 1015.09
1005.86 1006.56 1007.22 1007.82 1008.36 1008.85 1009.33 1009.81 1010.30 1010.78 1011.23 1011.64 1011.96 1012.18 1012.31 1012.35 1012.35 1012.33 1012.33 1012.39 1012.51 1012.70 1012.92 1013.16 1013.38 1013.57 1013.70 1013.77 1013.81 1013.83 1013.85 1013.90 1013.99 1014.12 1014.28 1014.46 1014.64 1014.81 1014.96 1015.07 1015.17 1015.24 1015.31
1005.48 1006.24 1006.96 1007.60 1008.17 1008.69 1009.19 1009.70 1010.21 1010.74 1011.25 1011.72 1012.10 1012.39 1012.56 1012.63 1012.64 1012.62 1012.61 1012.65 1012.77 1012.95 1013.19 1013.45 1013.70 1013.91 1014.06 1014.14 1014.16 1014.14 1014.11 1014.10 1014.13 1014.21 1014.35 1014.53 1014.73 1014.92 1015.10 1015.24 1015.35 1015.43 1015.49
1005.01 1005.85 1006.64 1007.34 1007.95 1008.50 1009.02 1009.54 1010.08 1010.64 1011.20 1011.72 1012.18 1012.54 1012.79 1012.92 1012.96 1012.96 1012.95 1012.99 1013.09 1013.27 1013.51 1013.79 1014.06 1014.29 1014.46 1014.55 1014.56 1014.51 1014.44 1014.39 1014.37 1014.41 1014.51 1014.67 1014.87 1015.07 1015.25 1015.40 1015.51 1015.58 1015.62
1004.47 1005.40 1006.27 1007.05 1007.72 1008.30 1008.84 1009.36 1009.91 1010.48 1011.08 1011.66 1012.19 1012.64 1012.97 1013.18 1013.29 1013.33 1013.34 1013.38 1013.47 1013.64 1013.87 1014.15 1014.43 1014.68 1014.87 1014.97 1014.99 1014.95 1014.86 1014.77 1014.72 1014.72 1014.78 1014.91 1015.07 1015.25 1015.42 1015.56 1015.64 1015.69 1015.69
1003.88 1004.91 1005.89 1006.75 1007.49 1008.11 1008.66 1009.18 1009.72 1010.30 1010.91 1011.54 1012.13 1012.66 1013.09 1013.39 1013.58 1013.68 1013.73 1013.78 1013.87 1014.02 1014.23 1014.49 1014.78 1015.04 1015.25 1015.38 1015.43 1015.40 1015.31 1015.22 1015.14 1015.10 1015.13 1015.21 1015.33 1015.47 1015.61 1015.71 1015.76 1015.76 1015.73
1003.30 1004.43 1005.52 1006.47 1007.28 1007.95 1008.51 1009.03 1009.55 1010.11 1010.73 1011.38 1012.03 1012.63 1013.14 1013.53 1013.81 1013.97 1014.07 1014.14 1014.22 1014.35 1014.54 1014.79 1015.06 1015.33 1015.56 1015.72 1015.80 1015.81 1015.75 1015.67 1015.58 1015.52 1015.51 1015.54 1015.62 1015.71 1015.80 1015.86 1015.87 1015.84 1015.76
1002.78 1004.00 1005.18 1006.23 1007.11 1007.82 1008.40 1008.91 1009.42 1009.96 1010.55 1011.21 1011.88 1012.53 1013.12 1013.60 1013.95 1014.18 1014.33 1014.42 1014.50 1014.62 1014.78 1015.00 1015.26 1015.52 1015.77 1015.97 1016.09 1016.14 1016.12 1016.06 1015.98 1015.91 1015.87 1015.87 1015.90 1015.95 1015.99 1016.01 1015.99 1015.92 1015.82
1002.37 1003.65 1004.90 1006.02 1006.97 1007.73 1008.34 1008.85 1009.33 1009.84 1010.41 1011.05 1011.73 1012.41 1013.05 1013.59 1014.01 1014.31 1014.49 1014.61 1014.70 1014.80 1014.94 1015.13 1015.37 1015.63 1015.89 1016.11 1016.27 1016.36 1016.39 1016.36 1016.30 1016.23 1016.18 1016.15 1016.14 1016.15 1016.16 1016.15 1016.11 1016.03 1015.92
1002.08 1003.38 1004.68 1005.86 1006.86 1007.66 1008.30 1008.82 1009.29 1009.77 1010.31 1010.92 1011.59 1012.28 1012.94 1013.52 1014.00 1014.35 1014.58 1014.73 1014.83 1014.92 1015.04 1015.21 1015.42 1015.67 1015.93 1016.16 1016.35 1016.47 1016.53 1016.53 1016.49 1016.43 1016.38 1016.33 1016.31 1016.30 1016.29 1016.28 1016.23 1016.16 1016.05
1001.91 1003.19 1004.49 1005.70 1006.74 1007.59 1008.26 1008.80 1009.27 1009.73 1010.25 1010.83 1011.48 1012.16 1012.83 1013.43 1013.95 1014.34 1014.62 1014.80 1014.92 1015.02 1015.13 1015.28 1015.47 1015.70 1015.94 1016.17 1016.36 1016.50 1016.57 1016.59 1016.57 1016.51 1016.46 1016.41 1016.38 1016.36 1016.36 1016.35 1016.32 1016.27 1016.19
1001.83 1003.06 1004.33 1005.54 1006.60 1007.48 1008.19 1008.76 1009.24 1009.71 1010.21 1010.77 1011.39 1012.05 1012.71 1013.33 1013.87 1014.31 1014.63 1014.85 1015.01 1015.12 1015.24 1015.37 1015.54 1015.74 1015.95 1016.15 1016.33 1016.46 1016.53 1016.55 1016.52 1016.47 1016.41 1016.37 1016.33 1016.32 1016.33 1016.34 1016.34 1016.33 1016.29
1001.81 1002.94 1004.15 1005.34 1006.40 1007.31 1008.06 1008.66 1009.18 1009.66 1010.16 1010.70 1011.30 1011.95 1012.60 1013.22 1013.78 1014.25 1014.62 1014.89 1015.09 1015.24 1015.36 1015.50 1015.64 1015.81 1015.98 1016.15 1016.28 1016.38 1016.43 1016.43 1016.39 1016.33 1016.27 1016.22 1016.19 1016.19 1016.21 1016.24 1016.28 1016.30 1016.30
1001.82 1002.84 1003.96 1005.09 1006.14 1007.07 1007.85 1008.50 1009.06 1009.57 1010.08 1010.63 1011.21 1011.83 1012.47 1013.10 1013.67 1014.18 1014.59 1014.91 1015.15 1015.34 1015.50 1015.63 1015.77 1015.90 1016.03 1016.14 1016.23 1016.27 1016.28 1016.25 1016.19 1016.12 1016.05 1016.00 1015.97 1015.98 1016.01 1016.06 1016.12 1016.17 1016.21
1001.83 1002.72 1003.74 1004.80 1005.82 1006.75 1007.57 1008.27 1008.87 1009.42 1009.96 1010.51 1011.09 1011.70 1012.33 1012.95 1013.53 1014.06 1014.51 1014.88 1015.17 1015.41 1015.59 1015.74 1015.87 1015.97 1016.06 1016.12 1016.15 1016.15 1016.11 1016.05 1015.96 1015.88 1015.80 1015.75 1015.73 1015.74 1015.78 1015.83 1015.90 1015.96 1016.00
1001.86 1002.61 1003.52 1004.49 1005.47 1006.39 1007.23 1007.97 1008.62 1009.22 1009.78 1010.35 1010.92 1011.52 1012.14 1012.75 1013.33 1013.87 1014.35 1014.77 1015.11 1015.38 1015.60 1015.76 1015.89 1015.98 1016.03 1016.05 1016.04 1016.00 1015.92 1015.84 1015.74 1015.65 1015.58 1015.53 1015.51 1015.52 1015.55 1015.59 1015.64 1015.69 1015.73
1001.91 1002.53 1003.32 1004.21 1005.13 1006.03 1006.87 1007.64 1008.33 1008.97 1009.56 1010.14 1010.72 1011.30 1011.90 1012.49 1013.07 1013.61 1014.11 1014.55 1014.92 1015.23 1015.47 1015.66 1015.79 1015.87 1015.91 1015.91 1015.87 1015.81 1015.72 1015.63 1015.54 1015.46 1015.40 1015.37 1015.35 1015.35 1015.37 1015.39 1015.41 1015.42 1015.42
1002.01 1002.52 1003.19 1003.98 1004.84 1005.70 1006.54 1007.32 1008.04 1008.70 1009.31 1009.90 1010.48 1011.05 1011.62 1012.19 1012.74 1013.27 1013.77 1014.22 1014.61 1014.94 1015.20 1015.40 1015.54 1015.63 1015.67 1015.67 1015.63 1015.58 1015.51 1015.43 1015.37 1015.32 1015.29 1015.27 1015.27 1015.27 1015.26 1015.25 1015.22 1015.18 1015.12
1002.21 1002.61 1003.17 1003.87 1004.65 1005.46 1006.27 1007.04 1007.76 1008.44 1009.06 1009.65 1010.22 1010.77 1011.31 1011.85 1012.37 1012.88 1013.35 1013.79 1014.18 1014.51 1014.79 1015.00 1015.16 1015.26 1015.32 1015.34 1015.33 1015.30 1015.26 1015.23 1015.21 1015.20 1015.20 1015.21 1015.22 1015.22 1015.20 1015.15 1015.07 1014.97 1014.86
1002.53 1002.84 1003.30 1003.90 1004.59 1005.33 1006.09 1006.83 1007.54 1008.21 1008.83 1009.41 1009.96 1010.48 1010.99 1011.49 1011.98 1012.44 1012.89 1013.30 1013.67 1014.00 1014.28 1014.50 1014.67 1014.80 1014.88 1014.93 1014.95 1014.97 1014.98 1015.00 1015.03 1015.07 1015.11 1015.14 1015.16 1015.16 1015.12 1015.03 1014.91 1014.76 1014.59
1003.01 1003.23 1003.60 1004.09 1004.69 1005.34 1006.03 1006.72 1007.39 1008.02 1008.62 1009.18 1009.70 1010.20 1010.68 1011.14 1011.58 1012.01 1012.41 1012.79 1013.14 1013.45 1013.72 1013.95 1014.13 1014.28 1014.39 1014.47 1014.54 1014.60 1014.66 1014.72 1014.79 1014.87 1014.94 1014.99 1015.02 1015.01 1014.95 1014.85 1014.70 1014.51 1014.30
1003.63 1003.78 1004.06 1004.45 1004.94 1005.49 1006.08 1006.69 1007.30 1007.88 1008.44 1008.97 1009.47 1009.93 1010.38 1010.80 1011.20 1011.59 1011.95 1012.30 1012.62 1012.91 1013.18 1013.41 1013.60 1013.77 1013.90 1014.02 1014.12 1014.21 1014.30 1014.39 1014.49 1014.58 1014.66 1014.71 1014.74 1014.72 1014.65 1014.53 1014.36 1014.16 1013.94
1004.40 1004.48 1004.66 1004.95 1005.32 1005.75 1006.24 1006.75 1007.27 1007.79 1008.30 1008.78 1009.24 1009.68 1010.09 1010.48 1010.85 1011.20 1011.54 1011.86 1012.16 1012.44 1012.70 1012.93 1013.14 1013.32 1013.48 1013.62 1013.74 1013.84 1013.94 1014.03 1014.11 1014.19 1014.25 1014.29 1014.30 1014.27 1014.19 1014.07 1013.90 1013.70 1013.49
1005.26 1005.28 1005.38 1005.55 1005.80 1006.11 1006.47 1006.87 1007.30 1007.73 1008.17 1008.61 1009.03 1009.43 1009.82 1010.19 1010.54 1010.87 1011.19 1011.50 1011.80 1012.08 1012.34 1012.59 1012.81 1013.01 1013.18 1013.32 1013.44 1013.54 1013.61 1013.67 1013.72 1013.76 1013.78 1013.78 1013.75 1013.70 1013.61 1013.48 1013.33 1013.15 1012.97
1006.16 1006.13 1006.14 1006.22 1006.35 1006.53 1006.76 1007.04 1007.36 1007.71 1008.08 1008.45 1008.83 1009.21 1009.58 1009.93 1010.28 1010.61 1010.94 1011.25 1011.56 1011.86 1012.15 1012.41 1012.66 1012.87 1013.05 1013.19 1013.30 1013.36 1013.40 1013.40 1013.39 1013.36 1013.31 1013.25 1013.19 1013.10 1013.00 1012.89 1012.75 1012.61 1012.46
Thickness
5788 5788 5787 5785 5781 5778 5774 5771 5769 5766 5763 5761 5759 5756 5754 5753 5752 5749 5746 5744 5743 5741 5739 5739 5736 5736 5735 5733 5733 5731 5730 5729 5729 5728 5727 5729 5729 5729 5728 5728 5728 5728 5727
5782 5780 5780 5779 5777 5774 5771 5768 5765 5764 5762 5760 5758 5755 5753 5751 5749 5747 5743 5741 5740 5738 5738 5735 5735 5733 5731 5730 5729 5727 5727 5727 5727 5725 5723 5721 5722 5724 5727 5725 5724 5724 5725
5777 5774 5773 5773 5773 5771 5768 5767 5763 5761 5758 5757 5755 5752 5749 5747 5745 5742 5741 5738 5737 5735 5734 5733 5732 5730 5730 5728 5726 5725 5723 5723 5724 5724 5720 5717 5715 5719 5722 5722 5722 5721 5722
5774 5772 5770 5768 5767 5768 5767 5763 5759 5757 5755 5753 5752 5749 5746 5743 5742 5740 5738 5735 5734 5732 5731 5729 5728 5727 5727 5725 5725 5723 5722 5720 5720 5720 5719 5717 5717 5713 5713 5717 5719 5718 5718
5770 5768 5767 5765 5765 5764 5763 5760 5755 5752 5751 5749 5747 5744 5743 5741 5740 5737 5734 5732 5731 5729 5728 5726 5725 5723 5723 5721 5720 5719 5719 5719 5717 5717 5716 5714 5713 5713 5710 5708 5711 5714 5716
5766 5764 5763 5762 5760 5759 5757 5754 5750 5747 5746 5744 5743 5740 5737 5735 5734 5732 5730 5729 5728 5727 5724 5723 5721 5720 5719 5718 5717 5716 5716 5715 5713 5713 5713 5711 5710 5709 5708 5706 5706 5707 5711
5760 5758 5756 5755 5753 5752 5749 5747 5743 5740 5740 5739 5737 5735 5733 5730 5728 5728 5726 5726 5726 5724 5720 5720 5717 5717 5715 5714 5713 5712 5712 5711 5709 5708 5709 5709 5708 5708 5706 5704 5704 5704 5707
5753 5752 5751 5749 5746 5745 5742 5741 5737 5735 5734 5733 5731 5729 5728 5727 5726 5724 5724 5722 5722 5721 5718 5715 5713 5712 5712 5711 5709 5710 5708 5707 5705 5706 5704 5704 5705 5705 5704 5702 5700 5699 5701
5745 5745 5744 5742 5740 5738 5736 5734 5731 5729 5727 5727 5726 5724 5723 5721 5720 5718 5718 5718 5717 5717 5714 5712 5710 5709 5707 5706 5705 5705 5704 5703 5703 5703 5702 5701 5702 5702 5701 5700 5699 5695 5693
5737 5736 5736 5734 5733 5732 5730 5728 5725 5723 5721 5720 5720 5719 5716 5714 5712 5712 5711 5711 5711 5710 5709 5708 5707 5705 5704 5703 5701 5701 5700 5698 5698 5697 5696 5695 5697 5698 5697 5697 5696 5695 5692
5728 5727 5727 5727 5726 5725 5723 5720 5718 5716 5715 5714 5713 5712 5710 5709 5708 5707 5707 5706 5705 5705 5703 5703 5702 5701 5700 5698 5697 5697 5696 5694 5693 5692 5692 5691 5691 5692 5693 5692 5691 5690 5689
5720 5720 5719 5718 5717 5715 5714 5712 5711 5709 5708 5708 5706 5705 5704 5704 5703 5703 5702 5702 5700 5700 5698 5698 5697 5696 5695 5694 5693 5692 5692 5690 5688 5687 5687 5687 5687 5685 5686 5686 5685 5685 5684
5710 5710 5709 5708 5707 5706 5705 5704 5703 5703 5702 5701 5700 5699 5698 5698 5698 5698 5697 5697 5696 5695 5694 5693 5692 5691 5691 5690 5689 5688 5687 5687 5685 5684 5682 5682 5681 5680 5681 5680 5680 5681 5681
5700 5699 5698 5697 5696 5695 5696 5695 5695 5695 5695 5694 5693 5691 5692 5692 5693 5693 5692 5692 5691 5690 5689 5689 5688 5687 5687 5686 5685 5684 5683 5682 5682 5681 5679 5678 5678 5676 5675 5675 5674 5675 5674
5688 5689 5688 5687 5686 5686 5685 5686 5686 5687 5687 5686 5685 5685 5685 5685 5686 5687 5686 5687 5686 5686 5685 5684 5683 5683 5683 5682 5680 5679 5679 5678 5677 5676 5675 5675 5673 5671 5670 5671 5670 5670 5669
5678 5678 5679 5678 5677 5677 5677 5678 5678 5678 5678 5678 5678 5679 5678 5679 5680 5680 5681 5681 5681 5680 5680 5679 5678 5678 5678 5673 5671 5671 5674 5673 5672 5671 5671 5671 5669 5667 5664 5663 5662 5662 5663
5669 5669 5669 5669 5668 5669 5669 5670 5670 5670 5669 5669 5671 5673 5672 5673 5674 5675 5675 5675 5674 5674 5673 5673 5673 5672 5670 5666 5664 5664 5666 5668 5668 5667 5666 5667 5669 5664 5664 5661 5658 5657 5656
5661 5661 5661 5661 5660 5661 5662 5662 5663 5662 5661 5661 5663 5664 5665 5666 5668 5668 5668 5668 5668 5668 5667 5667 5667 5666 5663 5659 5658 5657 5660 5662 5662 5662 5661 5660 5660 5660 5657 5657 5657 5656 5655
5653 5652 5653 5654 5653 5653 5654 5654 5654 5654 5654 5655 5655 5657 5658 5659 5660 5660 5660 5661 5662 5661 5661 5662 5661 5660 5658 5653 5652 5650 5655 5657 5657 5657 5657 5655 5654 5651 5649 5650 5650 5650 5650
5644 5644 5645 5644 5644 5644 5645 5645 5646 5646 5646 5647 5648 5650 5651 5652 5653 5653 5654 5655 5656 5656 5657 5657 5656 5655 5653 5648 5646 5644 5651 5652 5653 5653 5653 5649 5647 5644 5642 5644 5645 5643 5643
5635 5634 5635 5634 5635 5635 5635 5636 5638 5638 5639 5640 5641 5642 5644 5645 5646 5646 5647 5648 5649 5650 5650 5650 5650 5649 5648 5644 5641 5640 5645 5647 5648 5650 5650 5648 5641 5638 5636 5635 5638 5637 5635
5627 5626 5626 5626 5627 5628 5628 5628 5629 5631 5632 5632 5633 5634 5635 5638 5641 5640 5640 5641 5642 5642 5642 5643 5643 5644 5643 5641 5638 5636 5636 5637 5640 5642 5643 5641 5634 5631 5629 5629 5630 5628 5628
5619 5619 5619 5619 5620 5621 5621 5620 5621 5622 5622 5623 5624 5625 5627 5630 5632 5633 5634 5635 5636 5638 5639 5640 5640 5641 5640 5638 5634 5631 5630 5629 5632 5635 5632 5629 5627 5625 5625 5624 5623 5622 5625
5612 5612 5612 5612 5612 5612 5613 5613 5613 5614 5614 5614 5616 5618 5620 5622 5624 5626 5628 5629 5631 5633 5634 5634 5635 5635 5635 5634 5632 5630 5628 5625 5626 5627 5625 5622 5620 5620 5619 5619 5620 5621 5622
5605 5605 5604 5604 5604 5604 5604 5606 5606 5606 5605 5606 5608 5610 5613 5616 5616 5619 5620 5622 5623 5625 5624 5626 5628 5628 5627 5625 5621 5621 5622 5622 5621 5618 5619 5620 5619 5619 5619 5619 5618 5617 5617
5598 5597 5598 5598 5598 5597 5597 5598 5598 5599 5598 5599 5601 5604 5607 5609 5611 5613 5613 5611 5612 5612 5611 5612 5613 5617 5615 5612 5611 5610 5609 5609 5608 5609 5614 5614 5614 5614 5614 5614 5613 5612 5611